Find Starlink 6127

NORAD ID: 57135 Int'l Des: 2023-090 Owner: SPXS Country: US Constellation: starlink operational
LEOCIRCULAR

リアルタイム位置

3D地球を読み込み中...

Starlink 6127について

説明を読み込み中...

次回通過

Passes for default location (London). Set your location on the main map for personalized predictions.

高度履歴

Loading altitude history...

軌道要素

1 57135U 23090AL 26121.82561672 .00000345 00000-0 22550-4 0 9994
2 57135 43.0044 322.9400 0001531 269.3631 90.7045 15.26743519158482
Epoch: May 1, 2026 • Age: 22 hours

現在のステータス

高度 488.2 km
速度 7.63 km/s
衛星直下点 36.72°N, 121.2°W
打ち上げ日 Jun 23, 2023
運用期間 2.8 years
タイプ internet

技術仕様

分類 Payload
質量 305.00 kg
乾燥質量 290.00 kg
総質量 305.00 kg
長さ 0.20 m
直径 2.80 m
スパン 9.00 m
形状 Box + pan
製造者 SPXS
バスタイプ Starlink
フェーズステータス In Orbit
所有者/国 SPXS/US

Most Searched